Flag for U.S.A. Weather past 2 weeks in Rapid City, South Dakota, U.S.A.

Now
54 °F

Rain. Fog.


Feels Like: 49 °F
Forecast: 50 / 58 °F
Wind: 15 mph from Northwest

Location: Ellsworth Air Force Base

Current Time: Sep 30, 2014 at 12:56:26 PM

Latest Report: Sep 30, 2014 at 11:58 AM


Visibility: 4 mi

Pressure: 29.47 "Hg

Humidity: 100%

Dew point: 54 °F

Location of Rapid CityLocation

Historic Weather in Rapid City — Graph

°F

Rapid City temperature yesterday

Maximum temperature yesterday: 54 °F (at 7:58 PM)
Minimum temperature yesterday: 48 °F (at 5:03 AM)
Average temperature yesterday: 50 °F

Past Weeks' High & Low Weather Summary

 TemperatureHumidityPressure
High94 °F (Sep 26, 2:58 PM)100% (Sep 28, 7:58 PM)30.36 "Hg (Sep 28, 7:58 PM)
Low44 °F (Sep 21, 6:58 AM)20% (Sep 26, 2:58 PM)29.42 "Hg (Sep 30, 7:58 AM)
Average65 °F60%29.95 "Hg
* Reported Sep 15 11:58 AM — Sep 30 11:03 AM, Rapid City, Weather by CustomWeather, © 2014

Note: Actual official high and low records may vary slightly from our data, if they occured in-between our weather recording intervals... More about our weather records

Advertising

Rapid City weather history for previous 24 hours

 ConditionsComfort  
Time TempWeatherWind HumidityBarometerVisibility
11:03 AM
Sep 30
55 °FRain. Fog.10 mph94%29.46 "Hg4 mi
10:58 AM54 °FLight rain. Fog.7 mph98%29.45 "Hg4 mi
10:01 AM54 °FLight rain. Overcast.10 mph94%29.45 "Hg5 mi
9:58 AM54 °FMostly cloudy.9 mph91%29.44 "Hg10 mi
8:58 AM53 °FMostly cloudy.8 mph100%29.43 "Hg10 mi
8:03 AM54 °FLight rain. Fog.8 mph100%29.44 "Hg5 mi
7:58 AM56 °FLight rain. Fog.15 mph99%29.42 "Hg2 mi
6:58 AM54 °FLight rain. Low clouds.14 mph100%29.45 "Hg10 mi
5:59 AM54 °FLight rain. Low clouds.18 mph100%29.50 "Hg10 mi
5:58 AM53 °FLow clouds.16 mph100%29.49 "Hg10 mi
4:58 AM53 °FLight rain. Low clouds.16 mph100%29.53 "Hg8 mi
3:58 AM53 °FLow clouds.18 mph100%29.58 "Hg9 mi
3:03 AM54 °FFog.17 mph100%29.63 "Hg2 mi
2:03 AM54 °FLight rain. Mostly cloudy.3 mph100%29.69 "Hg8 mi
1:04 AM52 °FHeavy rain. Mostly cloudy.14 mph100%29.72 "Hg4 mi
11:58 PM
Sep 29
53 °FHeavy rain. Fog.10 mph100%29.77 "Hg4 mi
10:58 PM52 °FLight rain. Low clouds.9 mph100%29.81 "Hg5 mi
9:58 PM53 °FRain. Fog.5 mph100%29.86 "Hg1 mi
8:58 PM53 °FFog.2 mph100%29.88 "Hg0 mi
7:58 PM54 °FFog.3 mph100%29.90 "Hg0 mi
6:58 PM52 °FFog.6 mph100%29.93 "Hg1 mi
5:58 PM51 °FFog.6 mph100%29.94 "Hg1 mi
4:58 PM52 °FLow clouds.7 mph100%29.95 "Hg7 mi
3:58 PM51 °FMostly cloudy.7 mph100%29.96 "Hg7 mi
2:58 PM50 °FDrizzle. Mostly cloudy.9 mph100%29.99 "Hg5 mi
1:58 PM50 °FLow clouds.6 mph100%30.00 "Hg10 mi
12:58 PM50 °FLight rain. Low clouds.9 mph100%30.02 "Hg7 mi
Weather by CustomWeather, © 2014

See weather overviewHow to use our weather pages